Location: São Paulo
(23.5507°S, 46.6334°W)
Time: 09:34:01
(UTC-03:00)

Transit 4A - Pass Details

Date: 23 February 2026
Orbit: 864 x 977 km, 66.8° (Epoch: 11 March)

Event Time Altitude Azimuth Distance (km) Brightness Sun altitude
Rises 01:14:34 0° 219° (SW) 3,484 - -54.0°
Reaches altitude 10° 01:17:23 10° 230° (SW) 2,529 - -53.8°
Maximum altitude 01:22:16 28° 287° (WNW) 1,562 - -53.3°
Drops below altitude 10° 01:27:06 10° 344° (NNW) 2,495 - -52.8°
Sets 01:29:53 0° 356° (N) 3,428 - -52.5°
